星链-30271 (STARLINK-30271 )

导读

STARLINK-30271是美国SpaceX星链互联网星座的一员,于2023年8月22日发射入轨,旨在构建全球覆盖的低轨卫星通信网络。作为星链批量部署的卫星之一,它依托低轨轨道优势,可为偏远地区、移动场景提供高速互联网接入服务,也承担着部分商业通信服务功能。

Basic Information
目录编号:
57669
目录名称:
STARLINK-30271
国际标识:
2023-124G
轨道中心:
EARTH
卫星名称:
星链-30271
卫星全名:
星链-30271 (STARLINK-30271 )
卫星状态:
在轨 (已飞行1116 天)
发射日期:
2023-08-22 UTC
国别 :
美国 (US)
星等 :
--
This satellite is enrolled in the Space Conjunction Data Service (SCDS) and the current flight risk assessment level is: No High Risk
Orbit Information
数据来源 国际轨道数据 AOE轨道数据
星历时间 2026-09-11T12:48:21+0800
12小时前
查看轨道信息
2026-09-05T11:00:00+0800
6天前
查看轨道信息
半长轴 6848.867km 6848.818km
偏心率 0.000114 0.0001395
轨道倾角 53.160° 53.156°
近地点辐角 88.050° 86.988°
升交点赤经 63.882° 92.163°
平近点角 272.063° 234.746°
近地点 469.949km 469.725km
远地点 471.511km 471.637km
周期 94.013分钟 94.012分钟
每日圈数 15.317034 15.317199
Detailed Information
固有亮度:
5
最大亮度:
0.3
卫星平台:
Starlink v2.0 mini
覆盖范围:
全球
运营商:
太空探索技术公司
运营商所在国:
美国
制造商(研发单位):
太空探索技术公司
制造商所在国:
美国
使用方式:
暂无
Satellite Introduction
星链(Starlink)计划是由太空探索技术公司(SpaceX)提出的一个巨型低轨卫星互联网星座项目,计划在2019年至2024年间在太空搭建由约1.2万颗卫星组成的“星链”网络,其中1584颗将部署在地球上空550千米处的近地轨道,并从2020年开始工作。该卫星仍在工作。
2D Orbit Map
3D Orbit Map
Orbit Altitude Analysis Chart
Orbit Inclination Analysis Chart
Orbit Comprehensive Analysis Chart
View Comprehensive Chart
Conjunction Data List
Event ID Objects TCA Miss Dist (km) Collision Risk Probability Collision Risk Index (CRI) Action
CDM_260912-145405-766906-190121
OBJECT H (61901)
2026-09-12T
14:54:31+0000
1.609 km
极远距离
4.311281E-6 低风险 0.48
CDM_260912-100105-766906-904321
2026-09-12T
10:01:45+0000
2.593 km
极远距离
1.165216E-6 低风险 0.36
Miss Distance Evolution Trend with All Objects
Collision Probability Evolution Trend with All Objects